Location: Carbonear
(47.7333°N, 53.2500°W)
Time: 13:14:30
(UTC+00:00)

XW-2D - Pass Details

Date: 08 December 2022
Orbit: 488 x 502 km, 97.5° (Epoch: 06 February)

Event Time Altitude Azimuth Distance (km) Brightness Sun altitude
Rises 09:41:16 0° 15° (NNE) 2,575 ? -14.0°
Reaches altitude 10° 09:43:21 10° 18° (NNE) 1,689 ? -13.6°
Maximum altitude 09:46:58 68° 102° (ESE) 532 ? -13.1°
Drops below altitude 10° 09:50:34 10° 186° (S) 1,680 ? -12.5°
Sets 09:52:39 0° 189° (S) 2,560 ? -12.2°
